Year,Month,Day,Hour,Minute,Value (Times are PST for temperature in C)
2020,09,30,00,00,13.20
2020,09,30,00,01,13.20
2020,09,30,00,02,13.20
2020,09,30,00,03,13.10
2020,09,30,00,04,13.10
2020,09,30,00,05,13.10
2020,09,30,00,06,13.10
2020,09,30,00,07,13.10
2020,09,30,00,08,13.10
2020,09,30,00,09,13.10
2020,09,30,00,10,13.20
2020,09,30,00,11,13.20
2020,09,30,00,12,13.20
2020,09,30,00,13,13.20
2020,09,30,00,14,13.20
2020,09,30,00,15,13.20
2020,09,30,00,16,13.20
2020,09,30,00,17,13.20
2020,09,30,00,18,13.20
2020,09,30,00,19,13.20
2020,09,30,00,20,13.20
2020,09,30,00,21,13.10
2020,09,30,00,22,13.10
2020,09,30,00,23,13.10
2020,09,30,00,24,13.10
2020,09,30,00,25,13.10
2020,09,30,00,26,13.10
2020,09,30,00,27,13.00
2020,09,30,00,28,13.00
2020,09,30,00,29,13.00
2020,09,30,00,30,12.90
2020,09,30,00,31,12.90
2020,09,30,00,32,12.90
2020,09,30,00,33,12.90
2020,09,30,00,34,12.90
2020,09,30,00,35,12.90
2020,09,30,00,36,12.90
2020,09,30,00,37,12.90
2020,09,30,00,38,12.80
2020,09,30,00,39,12.80
2020,09,30,00,40,12.80
2020,09,30,00,41,12.80
2020,09,30,00,42,12.80
2020,09,30,00,43,12.90
2020,09,30,00,44,12.80
2020,09,30,00,45,12.80
2020,09,30,00,46,12.80
2020,09,30,00,47,12.80
2020,09,30,00,48,12.80
2020,09,30,00,49,12.80
2020,09,30,00,50,12.80
2020,09,30,00,51,12.70
2020,09,30,00,52,12.70
2020,09,30,00,53,12.70
2020,09,30,00,54,12.70
2020,09,30,00,55,12.70
2020,09,30,00,56,12.70
2020,09,30,00,57,12.70
2020,09,30,00,58,12.80
2020,09,30,00,59,12.80
2020,09,30,01,00,12.80
2020,09,30,01,01,12.90
2020,09,30,01,02,12.90
2020,09,30,01,03,12.90
2020,09,30,01,04,12.90
2020,09,30,01,05,12.90
2020,09,30,01,06,12.80
2020,09,30,01,07,12.80
2020,09,30,01,08,12.80
2020,09,30,01,09,12.80
2020,09,30,01,10,12.80
2020,09,30,01,11,12.70
2020,09,30,01,12,12.70
2020,09,30,01,13,12.70
2020,09,30,01,14,12.60
2020,09,30,01,15,12.60
2020,09,30,01,16,12.60
2020,09,30,01,17,12.60
2020,09,30,01,18,12.60
2020,09,30,01,19,12.50
2020,09,30,01,20,12.50
2020,09,30,01,21,12.50
2020,09,30,01,22,12.50
2020,09,30,01,23,12.50
2020,09,30,01,24,12.40
2020,09,30,01,25,12.40
2020,09,30,01,26,12.40
2020,09,30,01,27,12.40
2020,09,30,01,28,12.40
2020,09,30,01,29,12.40
2020,09,30,01,30,12.30
2020,09,30,01,31,12.30
2020,09,30,01,32,12.30
2020,09,30,01,33,12.30
2020,09,30,01,34,12.30
2020,09,30,01,35,12.30
2020,09,30,01,36,12.30
2020,09,30,01,37,12.30
2020,09,30,01,38,12.30
2020,09,30,01,39,12.30
2020,09,30,01,40,12.20
2020,09,30,01,41,12.20
2020,09,30,01,42,12.20
2020,09,30,01,43,12.20
2020,09,30,01,44,12.20
2020,09,30,01,45,12.10
2020,09,30,01,46,12.10
2020,09,30,01,47,12.10
2020,09,30,01,48,12.10
2020,09,30,01,49,12.10
2020,09,30,01,50,12.10
2020,09,30,01,51,12.10
2020,09,30,01,52,12.10
2020,09,30,01,53,12.10
2020,09,30,01,54,12.10
2020,09,30,01,55,12.10
2020,09,30,01,56,12.10
2020,09,30,01,57,12.10
2020,09,30,01,58,12.10
2020,09,30,01,59,12.10
2020,09,30,02,00,12.10
2020,09,30,02,01,12.10
2020,09,30,02,02,12.10
2020,09,30,02,03,12.10
2020,09,30,02,04,12.10
2020,09,30,02,05,12.10
2020,09,30,02,06,12.10
2020,09,30,02,07,12.10
2020,09,30,02,08,12.10
2020,09,30,02,09,12.10
2020,09,30,02,10,12.10
2020,09,30,02,11,12.10
2020,09,30,02,12,12.10
2020,09,30,02,13,12.10
2020,09,30,02,14,12.10
2020,09,30,02,15,12.10
2020,09,30,02,16,12.10
2020,09,30,02,17,12.10
2020,09,30,02,18,12.10
2020,09,30,02,19,12.10
2020,09,30,02,20,12.10
2020,09,30,02,21,12.10
2020,09,30,02,22,12.10
2020,09,30,02,23,12.10
2020,09,30,02,24,12.10
2020,09,30,02,25,12.10
2020,09,30,02,26,12.10
2020,09,30,02,27,12.00
2020,09,30,02,28,12.00
2020,09,30,02,29,12.00
2020,09,30,02,30,11.90
2020,09,30,02,31,11.90
2020,09,30,02,32,11.80
2020,09,30,02,33,11.80
2020,09,30,02,34,11.80
2020,09,30,02,35,11.80
2020,09,30,02,36,11.70
2020,09,30,02,37,11.70
2020,09,30,02,38,11.70
2020,09,30,02,39,11.70
2020,09,30,02,40,11.70
2020,09,30,02,41,11.70
2020,09,30,02,42,11.70
2020,09,30,02,43,11.60
2020,09,30,02,44,11.60
2020,09,30,02,45,11.60
2020,09,30,02,46,11.60
2020,09,30,02,47,11.60
2020,09,30,02,48,11.60
2020,09,30,02,49,11.60
2020,09,30,02,50,11.60
2020,09,30,02,51,11.60
2020,09,30,02,52,11.50
2020,09,30,02,53,11.50
2020,09,30,02,54,11.50
2020,09,30,02,55,11.50
2020,09,30,02,56,11.50
2020,09,30,02,57,11.50
2020,09,30,02,58,11.50
2020,09,30,02,59,11.50
2020,09,30,03,00,11.60
2020,09,30,03,01,11.60
2020,09,30,03,02,11.60
2020,09,30,03,03,11.60
2020,09,30,03,04,11.60
2020,09,30,03,05,11.60
2020,09,30,03,06,11.60
2020,09,30,03,07,11.50
2020,09,30,03,08,11.50
2020,09,30,03,09,11.50
2020,09,30,03,10,11.40
2020,09,30,03,11,11.40
2020,09,30,03,12,11.40
2020,09,30,03,13,11.40
2020,09,30,03,14,11.30
2020,09,30,03,15,11.30
2020,09,30,03,16,11.30
2020,09,30,03,17,11.30
2020,09,30,03,18,11.30
2020,09,30,03,19,11.30
2020,09,30,03,20,11.20
2020,09,30,03,21,11.20
2020,09,30,03,22,11.20
2020,09,30,03,23,11.20
2020,09,30,03,24,11.20
2020,09,30,03,25,11.20
2020,09,30,03,26,11.20
2020,09,30,03,27,11.20
2020,09,30,03,28,11.20
2020,09,30,03,29,11.10
2020,09,30,03,30,11.10
2020,09,30,03,31,11.10
2020,09,30,03,32,11.10
2020,09,30,03,33,11.10
2020,09,30,03,34,11.10
2020,09,30,03,35,11.00
2020,09,30,03,36,11.00
2020,09,30,03,37,11.00
2020,09,30,03,38,11.00
2020,09,30,03,39,11.00
2020,09,30,03,40,10.90
2020,09,30,03,41,10.90
2020,09,30,03,42,11.00
2020,09,30,03,43,11.00
2020,09,30,03,44,11.10
2020,09,30,03,45,11.10
2020,09,30,03,46,11.20
2020,09,30,03,47,11.20
2020,09,30,03,48,11.20
2020,09,30,03,49,11.20
2020,09,30,03,50,11.20
2020,09,30,03,51,11.30
2020,09,30,03,52,11.30
2020,09,30,03,53,11.30
2020,09,30,03,54,11.30
2020,09,30,03,55,11.30
2020,09,30,03,56,11.30
2020,09,30,03,57,11.30
2020,09,30,03,58,11.30
2020,09,30,03,59,11.30
2020,09,30,04,00,11.30
2020,09,30,04,01,11.30
2020,09,30,04,02,11.30
2020,09,30,04,03,11.20
2020,09,30,04,04,11.20
2020,09,30,04,05,11.20
2020,09,30,04,06,11.20
2020,09,30,04,07,11.20
2020,09,30,04,08,11.20
2020,09,30,04,09,11.20
2020,09,30,04,10,11.20
2020,09,30,04,11,11.20
2020,09,30,04,12,11.20
2020,09,30,04,13,11.20
2020,09,30,04,14,11.10
2020,09,30,04,15,11.10
2020,09,30,04,16,11.10
2020,09,30,04,17,11.10
2020,09,30,04,18,11.10
2020,09,30,04,19,11.10
2020,09,30,04,20,11.10
2020,09,30,04,21,11.00
2020,09,30,04,22,11.00
2020,09,30,04,23,10.90
2020,09,30,04,24,10.90
2020,09,30,04,25,10.90
2020,09,30,04,26,10.90
2020,09,30,04,27,10.80
2020,09,30,04,28,10.80
2020,09,30,04,29,10.80
2020,09,30,04,30,10.80
2020,09,30,04,31,10.80
2020,09,30,04,32,10.80
2020,09,30,04,33,10.80
2020,09,30,04,34,10.80
2020,09,30,04,35,10.80
2020,09,30,04,36,10.80
2020,09,30,04,37,10.70
2020,09,30,04,38,10.70
2020,09,30,04,39,10.70
2020,09,30,04,40,10.70
2020,09,30,04,41,10.70
2020,09,30,04,42,10.70
2020,09,30,04,43,10.70
2020,09,30,04,44,10.70
2020,09,30,04,45,10.70
2020,09,30,04,46,10.70
2020,09,30,04,47,10.80
2020,09,30,04,48,10.80
2020,09,30,04,49,10.80
2020,09,30,04,50,10.80
2020,09,30,04,51,10.80
2020,09,30,04,52,10.80
2020,09,30,04,53,10.90
2020,09,30,04,54,10.90
2020,09,30,04,55,11.00
2020,09,30,04,56,11.00
2020,09,30,04,57,11.10
2020,09,30,04,58,11.10
2020,09,30,04,59,11.00
2020,09,30,05,00,11.00
2020,09,30,05,01,11.00
2020,09,30,05,02,10.90
2020,09,30,05,03,10.90
2020,09,30,05,04,10.90
2020,09,30,05,05,10.90
2020,09,30,05,06,10.90
2020,09,30,05,07,10.90
2020,09,30,05,08,10.90
2020,09,30,05,09,10.90
2020,09,30,05,10,10.90
2020,09,30,05,11,10.90
2020,09,30,05,12,10.90
2020,09,30,05,13,10.90
2020,09,30,05,14,10.90
2020,09,30,05,15,10.90
2020,09,30,05,16,11.00
2020,09,30,05,17,10.90
2020,09,30,05,18,10.90
2020,09,30,05,19,10.90
2020,09,30,05,20,10.90
2020,09,30,05,21,10.90
2020,09,30,05,22,10.90
2020,09,30,05,23,10.90
2020,09,30,05,24,10.90
2020,09,30,05,25,10.90
2020,09,30,05,26,10.90
2020,09,30,05,27,10.90
2020,09,30,05,28,10.90
2020,09,30,05,29,10.90
2020,09,30,05,30,10.80
2020,09,30,05,31,10.80
2020,09,30,05,32,10.80
2020,09,30,05,33,10.80
2020,09,30,05,34,10.80
2020,09,30,05,35,10.80
2020,09,30,05,36,10.80
2020,09,30,05,37,10.80
2020,09,30,05,38,10.80
2020,09,30,05,39,10.80
2020,09,30,05,40,10.80
2020,09,30,05,41,10.70
2020,09,30,05,42,10.70
2020,09,30,05,43,10.70
2020,09,30,05,44,10.70
2020,09,30,05,45,10.70
2020,09,30,05,46,10.70
2020,09,30,05,47,10.70
2020,09,30,05,48,10.70
2020,09,30,05,49,10.70
2020,09,30,05,50,10.70
2020,09,30,05,51,10.80
2020,09,30,05,52,10.80
2020,09,30,05,53,10.80
2020,09,30,05,54,10.80
2020,09,30,05,55,10.80
2020,09,30,05,56,10.80
2020,09,30,05,57,10.80
2020,09,30,05,58,10.80
2020,09,30,05,59,10.80
2020,09,30,06,00,10.80
2020,09,30,06,01,10.80
2020,09,30,06,02,10.80
2020,09,30,06,03,10.80
2020,09,30,06,04,10.80
2020,09,30,06,05,10.80
2020,09,30,06,06,10.80
2020,09,30,06,07,10.80
2020,09,30,06,08,10.80
2020,09,30,06,09,10.80
2020,09,30,06,10,10.80
2020,09,30,06,11,10.80
2020,09,30,06,12,10.80
2020,09,30,06,13,10.80
2020,09,30,06,14,10.80
2020,09,30,06,15,10.80
2020,09,30,06,16,10.70
2020,09,30,06,17,10.70
2020,09,30,06,18,10.70
2020,09,30,06,19,10.70
2020,09,30,06,20,10.70
2020,09,30,06,21,10.70
2020,09,30,06,22,10.70
2020,09,30,06,23,10.60
2020,09,30,06,24,10.60
2020,09,30,06,25,10.60
2020,09,30,06,26,10.60
2020,09,30,06,27,10.60
2020,09,30,06,28,10.60
2020,09,30,06,29,10.60
2020,09,30,06,30,10.60
2020,09,30,06,31,10.60
2020,09,30,06,32,10.50
2020,09,30,06,33,10.50
2020,09,30,06,34,10.50
2020,09,30,06,35,10.40
2020,09,30,06,36,10.40
2020,09,30,06,37,10.40
2020,09,30,06,38,10.40
2020,09,30,06,39,10.40
2020,09,30,06,40,10.40
2020,09,30,06,41,10.50
2020,09,30,06,42,10.50
2020,09,30,06,43,10.50
2020,09,30,06,44,10.50
2020,09,30,06,45,10.50
2020,09,30,06,46,10.50
2020,09,30,06,47,10.40
2020,09,30,06,48,10.40
2020,09,30,06,49,10.40
2020,09,30,06,50,10.40
2020,09,30,06,51,10.40
2020,09,30,06,52,10.40
2020,09,30,06,53,10.40
2020,09,30,06,54,10.40
2020,09,30,06,55,10.40
2020,09,30,06,56,10.30
2020,09,30,06,57,10.30
2020,09,30,06,58,10.30
2020,09,30,06,59,10.30
2020,09,30,07,00,10.30
2020,09,30,07,01,10.30
2020,09,30,07,02,10.30
2020,09,30,07,03,10.30
2020,09,30,07,04,10.30
2020,09,30,07,05,10.30
2020,09,30,07,06,10.30
2020,09,30,07,07,10.30
2020,09,30,07,08,10.30
2020,09,30,07,09,10.30
2020,09,30,07,10,10.40
2020,09,30,07,11,10.40
2020,09,30,07,12,10.40
2020,09,30,07,13,10.40
2020,09,30,07,14,10.50
2020,09,30,07,15,10.50
2020,09,30,07,16,10.50
2020,09,30,07,17,10.50
2020,09,30,07,18,10.40
2020,09,30,07,19,10.40
2020,09,30,07,20,10.40
2020,09,30,07,21,10.40
2020,09,30,07,22,10.40
2020,09,30,07,23,10.40
2020,09,30,07,24,10.40
2020,09,30,07,25,10.30
2020,09,30,07,26,10.30
2020,09,30,07,27,10.30
2020,09,30,07,28,10.30
2020,09,30,07,29,10.30
2020,09,30,07,30,10.40
2020,09,30,07,31,10.40
2020,09,30,07,32,10.40
2020,09,30,07,33,10.40
2020,09,30,07,34,10.40
2020,09,30,07,35,10.40
2020,09,30,07,36,10.40
2020,09,30,07,37,10.40
2020,09,30,07,38,10.40
2020,09,30,07,39,10.40
2020,09,30,07,40,10.30
2020,09,30,07,41,10.30
2020,09,30,07,42,10.30
2020,09,30,07,43,10.30
2020,09,30,07,44,10.30
2020,09,30,07,45,10.30
2020,09,30,07,46,10.30
2020,09,30,07,47,10.30
2020,09,30,07,48,10.30
2020,09,30,07,49,10.30
2020,09,30,07,50,10.30
2020,09,30,07,51,10.30
2020,09,30,07,52,10.30
2020,09,30,07,53,10.30
2020,09,30,07,54,10.30
2020,09,30,07,55,10.30
2020,09,30,07,56,10.30
2020,09,30,07,57,10.30
2020,09,30,07,58,10.30
2020,09,30,07,59,10.30
2020,09,30,08,00,10.30
2020,09,30,08,01,10.30
2020,09,30,08,02,10.30
2020,09,30,08,03,10.30
2020,09,30,08,04,10.40
2020,09,30,08,05,10.40
2020,09,30,08,06,10.50
2020,09,30,08,07,10.50
2020,09,30,08,08,10.60
2020,09,30,08,09,10.60
2020,09,30,08,10,10.60
2020,09,30,08,11,10.60
2020,09,30,08,12,10.60
2020,09,30,08,13,10.60
2020,09,30,08,14,10.60
2020,09,30,08,15,10.60
2020,09,30,08,16,10.60
2020,09,30,08,17,10.60
2020,09,30,08,18,10.70
2020,09,30,08,19,10.70
2020,09,30,08,20,10.70
2020,09,30,08,21,10.70
2020,09,30,08,22,10.80
2020,09,30,08,23,10.80
2020,09,30,08,24,10.80
2020,09,30,08,25,10.80
2020,09,30,08,26,10.80
2020,09,30,08,27,10.90
2020,09,30,08,28,10.90
2020,09,30,08,29,10.90
2020,09,30,08,30,10.90
2020,09,30,08,31,11.00
2020,09,30,08,32,11.00
2020,09,30,08,33,11.00
2020,09,30,08,34,11.10
2020,09,30,08,35,11.10
2020,09,30,08,36,11.10
2020,09,30,08,37,11.20
2020,09,30,08,38,11.20
2020,09,30,08,39,11.20
2020,09,30,08,40,11.30
2020,09,30,08,41,11.30
2020,09,30,08,42,11.30
2020,09,30,08,43,11.30
2020,09,30,08,44,11.40
2020,09,30,08,45,11.40
2020,09,30,08,46,11.40
2020,09,30,08,47,11.50
2020,09,30,08,48,11.60
2020,09,30,08,49,11.60
2020,09,30,08,50,11.70
2020,09,30,08,51,11.80
2020,09,30,08,52,11.80
2020,09,30,08,53,11.80
2020,09,30,08,54,11.80
2020,09,30,08,55,11.90
2020,09,30,08,56,11.90
2020,09,30,08,57,12.00
2020,09,30,08,58,12.00
2020,09,30,08,59,12.10
2020,09,30,09,00,12.10
2020,09,30,09,01,12.20
2020,09,30,09,02,12.20
2020,09,30,09,03,12.30
2020,09,30,09,04,12.30
2020,09,30,09,05,12.30
2020,09,30,09,06,12.30
2020,09,30,09,07,12.40
2020,09,30,09,08,12.40
2020,09,30,09,09,12.40
2020,09,30,09,10,12.40
2020,09,30,09,11,12.50
2020,09,30,09,12,12.50
2020,09,30,09,13,12.50
2020,09,30,09,14,12.60
2020,09,30,09,15,12.60
2020,09,30,09,16,12.70
2020,09,30,09,17,12.70
2020,09,30,09,18,12.70
2020,09,30,09,19,12.80
2020,09,30,09,20,12.80
2020,09,30,09,21,12.80
2020,09,30,09,22,12.90
2020,09,30,09,23,12.90
2020,09,30,09,24,13.00
2020,09,30,09,25,13.00
2020,09,30,09,26,13.10
2020,09,30,09,27,13.20
2020,09,30,09,28,13.20
2020,09,30,09,29,13.20
2020,09,30,09,30,13.20
2020,09,30,09,31,13.30
2020,09,30,09,32,13.30
2020,09,30,09,33,13.30
2020,09,30,09,34,13.30
2020,09,30,09,35,13.30
2020,09,30,09,36,13.40
2020,09,30,09,37,13.40
2020,09,30,09,38,13.40
2020,09,30,09,39,13.50
2020,09,30,09,40,13.60
2020,09,30,09,41,13.70
2020,09,30,09,42,13.70
2020,09,30,09,43,13.80
2020,09,30,09,44,13.90
2020,09,30,09,45,14.00
2020,09,30,09,46,14.00
2020,09,30,09,47,14.10
2020,09,30,09,48,14.10
2020,09,30,09,49,14.20
2020,09,30,09,50,14.20
2020,09,30,09,51,14.20
2020,09,30,09,52,14.20
2020,09,30,09,53,14.30
2020,09,30,09,54,14.30
2020,09,30,09,55,14.40
2020,09,30,09,56,14.30
2020,09,30,09,57,14.20
2020,09,30,09,58,14.20
2020,09,30,09,59,14.20
2020,09,30,10,00,14.20
2020,09,30,10,01,14.20
2020,09,30,10,02,14.20
2020,09,30,10,03,14.20
2020,09,30,10,04,14.20
2020,09,30,10,05,14.30
2020,09,30,10,06,14.30
2020,09,30,10,07,14.40
2020,09,30,10,08,14.40
2020,09,30,10,09,14.50
2020,09,30,10,10,14.50
2020,09,30,10,11,14.60
2020,09,30,10,12,14.70
2020,09,30,10,13,14.70
2020,09,30,10,14,14.80
2020,09,30,10,15,14.90
2020,09,30,10,16,14.90
2020,09,30,10,17,15.00
2020,09,30,10,18,15.10
2020,09,30,10,19,15.10
2020,09,30,10,20,15.20
2020,09,30,10,21,15.30
2020,09,30,10,22,15.30
2020,09,30,10,23,15.30
2020,09,30,10,24,15.40
2020,09,30,10,25,15.40
2020,09,30,10,26,15.50
2020,09,30,10,27,15.60
2020,09,30,10,28,15.60
2020,09,30,10,29,15.70
2020,09,30,10,30,15.80
2020,09,30,10,31,15.90
2020,09,30,10,32,15.90
2020,09,30,10,33,16.00
2020,09,30,10,34,16.00
2020,09,30,10,35,15.90
2020,09,30,10,36,15.90
2020,09,30,10,37,15.90
2020,09,30,10,38,15.90
2020,09,30,10,39,15.90
2020,09,30,10,40,15.90
2020,09,30,10,41,15.90
2020,09,30,10,42,16.00
2020,09,30,10,43,16.10
2020,09,30,10,44,16.10
2020,09,30,10,45,16.20
2020,09,30,10,46,16.20
2020,09,30,10,47,16.20
2020,09,30,10,48,16.20
2020,09,30,10,49,16.20
2020,09,30,10,50,16.30
2020,09,30,10,51,16.30
2020,09,30,10,52,16.30
2020,09,30,10,53,16.30
2020,09,30,10,54,16.40
2020,09,30,10,55,16.50
2020,09,30,10,56,16.50
2020,09,30,10,57,16.60
2020,09,30,10,58,16.60
2020,09,30,10,59,16.70
2020,09,30,11,00,16.80
2020,09,30,11,01,16.80
2020,09,30,11,02,16.90
2020,09,30,11,03,16.90
2020,09,30,11,04,17.00
2020,09,30,11,05,17.10
2020,09,30,11,06,17.10
2020,09,30,11,07,17.10
2020,09,30,11,08,17.20
2020,09,30,11,09,17.20
2020,09,30,11,10,17.30
2020,09,30,11,11,17.30
2020,09,30,11,12,17.40
2020,09,30,11,13,17.40
2020,09,30,11,14,17.40
2020,09,30,11,15,17.50
2020,09,30,11,16,17.50
2020,09,30,11,17,17.50
2020,09,30,11,18,17.60
2020,09,30,11,19,17.60
2020,09,30,11,20,17.60
2020,09,30,11,21,17.60
2020,09,30,11,22,17.60
2020,09,30,11,23,17.60
2020,09,30,11,24,17.70
2020,09,30,11,25,17.70
2020,09,30,11,26,17.70
2020,09,30,11,27,17.70
2020,09,30,11,28,17.70
2020,09,30,11,29,17.80
2020,09,30,11,30,17.80
2020,09,30,11,31,17.80
2020,09,30,11,32,17.90
2020,09,30,11,33,17.90
2020,09,30,11,34,17.90
2020,09,30,11,35,18.00
2020,09,30,11,36,18.00
2020,09,30,11,37,18.00
2020,09,30,11,38,18.00
2020,09,30,11,39,18.00
2020,09,30,11,40,18.00
2020,09,30,11,41,18.00
2020,09,30,11,42,18.00
2020,09,30,11,43,18.10
2020,09,30,11,44,18.10
2020,09,30,11,45,18.10
2020,09,30,11,46,18.10
2020,09,30,11,47,18.10
2020,09,30,11,48,18.10
2020,09,30,11,49,18.10
2020,09,30,11,50,18.00
2020,09,30,11,51,18.00
2020,09,30,11,52,18.00
2020,09,30,11,53,18.00
2020,09,30,11,54,17.90
2020,09,30,11,55,17.90
2020,09,30,11,56,18.00
2020,09,30,11,57,18.00
2020,09,30,11,58,18.10
2020,09,30,11,59,18.10
2020,09,30,12,00,18.10
2020,09,30,12,01,18.10
2020,09,30,12,02,18.10
2020,09,30,12,03,18.10
2020,09,30,12,04,18.20
2020,09,30,12,05,18.20
2020,09,30,12,06,18.20
2020,09,30,12,07,18.30
2020,09,30,12,08,18.30
2020,09,30,12,09,18.40
2020,09,30,12,10,18.40
2020,09,30,12,11,18.40
2020,09,30,12,12,18.40
2020,09,30,12,13,18.40
2020,09,30,12,14,18.40
2020,09,30,12,15,18.40
2020,09,30,12,16,18.50
2020,09,30,12,17,18.50
2020,09,30,12,18,18.50
2020,09,30,12,19,18.50
2020,09,30,12,20,18.60
2020,09,30,12,21,18.60
2020,09,30,12,22,18.60
2020,09,30,12,23,18.60
2020,09,30,12,24,18.70
2020,09,30,12,25,18.70
2020,09,30,12,26,18.70
2020,09,30,12,27,18.70
2020,09,30,12,28,18.70
2020,09,30,12,29,18.80
2020,09,30,12,30,18.80
2020,09,30,12,31,18.80
2020,09,30,12,32,18.90
2020,09,30,12,33,18.90
2020,09,30,12,34,18.90
2020,09,30,12,35,18.90
2020,09,30,12,36,19.00
2020,09,30,12,37,19.00
2020,09,30,12,38,19.10
2020,09,30,12,39,19.10
2020,09,30,12,40,19.10
2020,09,30,12,41,19.10
2020,09,30,12,42,19.10
2020,09,30,12,43,19.20
2020,09,30,12,44,19.20
2020,09,30,12,45,19.20
2020,09,30,12,46,19.20
2020,09,30,12,47,19.20
2020,09,30,12,48,19.20
2020,09,30,12,49,19.30
2020,09,30,12,50,19.30
2020,09,30,12,51,19.30
2020,09,30,12,52,19.40
2020,09,30,12,53,19.40
2020,09,30,12,54,19.40
2020,09,30,12,55,19.40
2020,09,30,12,56,19.50
2020,09,30,12,57,19.60
2020,09,30,12,58,19.70
2020,09,30,12,59,19.70
2020,09,30,13,00,19.80
2020,09,30,13,01,19.80
2020,09,30,13,02,19.90
2020,09,30,13,03,19.90
2020,09,30,13,04,19.90
2020,09,30,13,05,19.90
2020,09,30,13,06,19.90
2020,09,30,13,07,20.00
2020,09,30,13,08,20.00
2020,09,30,13,09,20.00
2020,09,30,13,10,20.10
2020,09,30,13,11,20.00
2020,09,30,13,12,20.00
2020,09,30,13,13,19.90
2020,09,30,13,14,19.90
2020,09,30,13,15,19.80
2020,09,30,13,16,19.80
2020,09,30,13,17,19.70
2020,09,30,13,18,19.60
2020,09,30,13,19,19.60
2020,09,30,13,20,19.50
2020,09,30,13,21,19.40
2020,09,30,13,22,19.40
2020,09,30,13,23,19.40
2020,09,30,13,24,19.40
2020,09,30,13,25,19.40
2020,09,30,13,26,19.40
2020,09,30,13,27,19.40
2020,09,30,13,28,19.40
2020,09,30,13,29,19.50
2020,09,30,13,30,19.50
2020,09,30,13,31,19.60
2020,09,30,13,32,19.60
2020,09,30,13,33,19.70
2020,09,30,13,34,19.70
2020,09,30,13,35,19.70
2020,09,30,13,36,19.70
2020,09,30,13,37,19.70
2020,09,30,13,38,19.80
2020,09,30,13,39,19.80
2020,09,30,13,40,19.90
2020,09,30,13,41,19.80
2020,09,30,13,42,19.80
2020,09,30,13,43,19.80
2020,09,30,13,44,19.80
2020,09,30,13,45,19.80
2020,09,30,13,46,19.80
2020,09,30,13,47,19.80
2020,09,30,13,48,19.80
2020,09,30,13,49,19.80
2020,09,30,13,50,19.80
2020,09,30,13,51,19.80
2020,09,30,13,52,19.80
2020,09,30,13,53,19.80
2020,09,30,13,54,19.70
2020,09,30,13,55,19.70
2020,09,30,13,56,19.70
2020,09,30,13,57,19.70
2020,09,30,13,58,19.70
2020,09,30,13,59,19.70
2020,09,30,14,00,19.70
2020,09,30,14,01,19.70
2020,09,30,14,02,19.70
2020,09,30,14,03,19.70
2020,09,30,14,04,19.70
2020,09,30,14,05,19.70
2020,09,30,14,06,19.70
2020,09,30,14,07,19.70
2020,09,30,14,08,19.70
2020,09,30,14,09,19.80
2020,09,30,14,10,19.80
2020,09,30,14,11,19.80
2020,09,30,14,12,19.90
2020,09,30,14,13,19.90
2020,09,30,14,14,19.90
2020,09,30,14,15,19.90
2020,09,30,14,16,19.90
2020,09,30,14,17,19.90
2020,09,30,14,18,19.90
2020,09,30,14,19,19.90
2020,09,30,14,20,19.90
2020,09,30,14,21,19.90
2020,09,30,14,22,19.90
2020,09,30,14,23,19.90
2020,09,30,14,24,19.90
2020,09,30,14,25,20.00
2020,09,30,14,26,20.00
2020,09,30,14,27,20.00
2020,09,30,14,28,20.00
2020,09,30,14,29,20.10
2020,09,30,14,30,20.10
2020,09,30,14,31,20.10
2020,09,30,14,32,20.10
2020,09,30,14,33,20.10
2020,09,30,14,34,20.10
2020,09,30,14,35,20.10
2020,09,30,14,36,20.10
2020,09,30,14,37,20.10
2020,09,30,14,38,20.10
2020,09,30,14,39,20.10
2020,09,30,14,40,20.10
2020,09,30,14,41,20.10
2020,09,30,14,42,20.10
2020,09,30,14,43,20.10
2020,09,30,14,44,20.10
2020,09,30,14,45,20.10
2020,09,30,14,46,20.10
2020,09,30,14,47,20.20
2020,09,30,14,48,20.20
2020,09,30,14,49,20.20
2020,09,30,14,50,20.20
2020,09,30,14,51,20.20
2020,09,30,14,52,20.20
2020,09,30,14,53,20.20
2020,09,30,14,54,20.20
2020,09,30,14,55,20.20
2020,09,30,14,56,20.20
2020,09,30,14,57,20.20
2020,09,30,14,58,20.20
2020,09,30,14,59,20.10
2020,09,30,15,00,20.10
2020,09,30,15,01,20.10
2020,09,30,15,02,20.10
2020,09,30,15,03,20.10
2020,09,30,15,04,20.10
2020,09,30,15,05,20.10
2020,09,30,15,06,20.10
2020,09,30,15,07,20.00
2020,09,30,15,08,20.00
2020,09,30,15,09,20.00
2020,09,30,15,10,19.90
2020,09,30,15,11,19.90
2020,09,30,15,12,19.90
2020,09,30,15,13,19.80
2020,09,30,15,14,19.80
2020,09,30,15,15,19.80
2020,09,30,15,16,19.70
2020,09,30,15,17,19.70
2020,09,30,15,18,19.60
2020,09,30,15,19,19.60
2020,09,30,15,20,19.50
2020,09,30,15,21,19.50
2020,09,30,15,22,19.40
2020,09,30,15,23,19.40
2020,09,30,15,24,19.40
2020,09,30,15,25,19.30
2020,09,30,15,26,19.30
2020,09,30,15,27,19.30
2020,09,30,15,28,19.20
2020,09,30,15,29,19.20
2020,09,30,15,30,19.10
2020,09,30,15,31,19.10
2020,09,30,15,32,19.10
2020,09,30,15,33,19.10
2020,09,30,15,34,19.10
2020,09,30,15,35,19.10
2020,09,30,15,36,19.10
2020,09,30,15,37,19.10
2020,09,30,15,38,19.20
2020,09,30,15,39,19.20
2020,09,30,15,40,19.20
2020,09,30,15,41,19.20
2020,09,30,15,42,19.20
2020,09,30,15,43,19.20
2020,09,30,15,44,19.20
2020,09,30,15,45,19.20
2020,09,30,15,46,19.20
2020,09,30,15,47,19.30
2020,09,30,15,48,19.30
2020,09,30,15,49,19.30
2020,09,30,15,50,19.30
2020,09,30,15,51,19.40
2020,09,30,15,52,19.40
2020,09,30,15,53,19.40
2020,09,30,15,54,19.40
2020,09,30,15,55,19.40
2020,09,30,15,56,19.40
2020,09,30,15,57,19.40
2020,09,30,15,58,19.40
2020,09,30,15,59,19.40
2020,09,30,16,00,19.40
2020,09,30,16,01,19.40
2020,09,30,16,02,19.40
2020,09,30,16,03,19.40
2020,09,30,16,04,19.40
2020,09,30,16,05,19.50
2020,09,30,16,06,19.50
2020,09,30,16,07,19.50
2020,09,30,16,08,19.50
2020,09,30,16,09,19.60
2020,09,30,16,10,19.60
2020,09,30,16,11,19.60
2020,09,30,16,12,19.70
2020,09,30,16,13,19.70
2020,09,30,16,14,19.70
2020,09,30,16,15,19.80
2020,09,30,16,16,19.80
2020,09,30,16,17,19.80
2020,09,30,16,18,19.80
2020,09,30,16,19,19.80
2020,09,30,16,20,19.80
2020,09,30,16,21,19.80
2020,09,30,16,22,19.90
2020,09,30,16,23,19.90
2020,09,30,16,24,19.90
2020,09,30,16,25,19.90
2020,09,30,16,26,19.90
2020,09,30,16,27,19.90
2020,09,30,16,28,19.90
2020,09,30,16,29,19.90
2020,09,30,16,30,19.90
2020,09,30,16,31,19.90
2020,09,30,16,32,19.90
2020,09,30,16,33,19.90
2020,09,30,16,34,19.90
2020,09,30,16,35,19.90
2020,09,30,16,36,19.90
2020,09,30,16,37,19.90
2020,09,30,16,38,20.00
2020,09,30,16,39,20.00
2020,09,30,16,40,20.00
2020,09,30,16,41,20.10
2020,09,30,16,42,20.10
2020,09,30,16,43,20.10
2020,09,30,16,44,20.20
2020,09,30,16,45,20.20
2020,09,30,16,46,20.20
2020,09,30,16,47,20.20
2020,09,30,16,48,20.20
2020,09,30,16,49,20.20
2020,09,30,16,50,20.20
2020,09,30,16,51,20.20
2020,09,30,16,52,20.20
2020,09,30,16,53,20.20
2020,09,30,16,54,20.20
2020,09,30,16,55,20.20
2020,09,30,16,56,20.20
2020,09,30,16,57,20.20
2020,09,30,16,58,20.20
2020,09,30,16,59,20.30
2020,09,30,17,00,20.30
2020,09,30,17,01,20.30
2020,09,30,17,02,20.30
2020,09,30,17,03,20.30
2020,09,30,17,04,20.30
2020,09,30,17,05,20.30
2020,09,30,17,06,20.40
2020,09,30,17,07,20.40
2020,09,30,17,08,20.40
2020,09,30,17,09,20.40
2020,09,30,17,10,20.40
2020,09,30,17,11,20.40
2020,09,30,17,12,20.40
2020,09,30,17,13,20.30
2020,09,30,17,14,20.30
2020,09,30,17,15,20.30
2020,09,30,17,16,20.30
2020,09,30,17,17,20.30
2020,09,30,17,18,20.20
2020,09,30,17,19,20.20